Location: *
(49.6407°S, 177.2018°W)
Time: 04:57:55
(UTC+00:00)

Daily predictions for brighter satellites

Satellite Brightness Start Highest point End
(mag) Time Altitude Azimuth Time Altitude Azimuth Time Altitude Azimuth
COSMOS 2455 3.2 06:36:15 10° SW 06:42:18 71° WNW 06:48:17 10° NNE
Cosmos 2266 Rocket 4.3 06:37:27 10° SSW 06:43:34 73° W 06:49:40 10° N
Cosmos 1975 2.9 06:41:44 10° S 06:45:24 46° ESE 06:49:01 10° NNE
Cosmos 44 3.3 06:43:53 10° NW 06:48:34 81° SW 06:53:02 10° SE
NOSS 3-1 (A) 3.6 06:44:08 10° SW 06:51:01 78° NW 06:56:19 10° NNE
Cosmos 1452 Rocket 3.6 06:49:10 10° N 06:54:17 55° ENE 06:59:29 10° SSE
Meteor 1-19 Rocket 4.4 06:51:56 10° N 06:57:41 61° E 07:03:39 10° SSE
CZ-4 R/B 4.3 06:54:50 10° SSE 06:58:55 75° ENE 07:02:57 10° N
SAR-Lupe-4 3.9 06:55:57 10° SSE 06:59:26 42° E 07:02:52 10° N
SJ-6F 4.3 06:55:32 10° SSE 06:59:36 80° ENE 07:03:34 10° N
Cosmos 1536 4.2 06:57:28 10° SSW 07:01:01 40° W 07:04:32 10° NNW
ATLAS 5 CENTAUR R/B 3.3 06:55:21 10° SW 07:01:04 33° SSE 07:05:46 11° E
Radarsat Rocket 4.5 06:58:03 10° SSE 07:03:26 34° E 07:08:46 10° NNE
Meteor 1-14 Rocket 4.4 06:59:05 10° SSW 07:04:43 77° W 07:10:17 10° N
Cosmos 1110 Rocket 4.2 07:02:20 10° NNW 07:07:41 84° WSW 07:13:02 10° SSE
Cosmos 2221 2.5 07:04:32 10° N 07:08:43 88° W 07:13:01 10° S
Cosmos 1553 Rocket 4.3 07:05:55 10° NNE 07:11:58 46° E 07:18:08 10° SSE
Cosmos 1818 4.1 07:07:58 10° SSW 07:13:12 45° SE 07:17:27 15° ENE
Meteor 1-27 Rocket 4.1 07:08:01 10° NNE 07:13:34 46° E 07:19:04 10° SSE
Cosmos 1655 Rocket 4.2 07:07:25 10° S 07:13:46 83° W 07:20:06 10° N
Thor Agena Rocket 4.3 07:11:43 10° S 07:16:47 58° WSW 07:21:51 10° NNW
ARIANE 5 R/B 3.0 07:11:42 10° S 07:16:54 67° WSW 07:21:59 10° NNW
Sich 1 4.4 07:14:35 10° SSE 07:17:45 20° ESE 07:19:25 16° E
Cosmos 1766 Rocket 3.8 07:14:39 10° S 07:18:54 48° ESE 07:23:07 10° NNE
SL-08 R/B 3.7 07:17:00 10° N 07:21:56 72° WNW 07:26:57 10° SSW
Spot 4 Rocket 4.1 07:21:29 10° SSE 07:26:38 58° ENE 07:31:41 10° N
CARTOSAT-1 3.4 07:22:50 10° SSE 07:27:08 69° E 07:31:22 10° N
ATLAS 2AS CENTAUR R/B 3.3 07:22:06 10° N 07:28:29 37° ENE 07:35:04 10° SE
CZ-2D R/B 3.3 07:24:42 10° SSE 07:28:43 73° ENE 07:32:46 10° N
YAOGAN 11 4.2 07:25:12 10° N 07:29:29 75° WNW 07:33:52 10° SSW
Cosmos 1833 Rocket 2.7 07:26:48 10° NNW 07:32:28 88° WSW 07:38:13 10° SSE
Meteor 2-10 Rocket 4.3 07:27:16 10° S 07:32:30 37° ESE 07:36:05 19° NE
Meteor 1-11 Rocket 4.0 07:27:18 10° SSW 07:33:02 74° W 07:38:35 10° N
USA 229 DEB 4.0 07:28:25 10° SW 07:35:03 48° SE 07:39:07 20° E
USA 229 4.0 07:28:29 10° SW 07:35:06 48° SE 07:39:10 20° E
Cosmos 1745 Rocket 4.3 07:30:28 10° S 07:36:27 46° ESE 07:41:14 16° NE
Cosmos 2219 Rocket 4.4 07:35:44 10° S 07:38:06 12° SSE 07:40:27 10° SE
Resurs 01 Rocket 1.6 07:34:30 10° SSE 07:39:00 67° ENE 07:43:25 10° N
Okean 3 Rocket 4.3 07:38:16 10° S 07:42:31 36° ESE 07:44:20 26° ENE
SJ-7 4.2 07:40:58 10° SSE 07:44:45 83° WSW 07:48:28 10° NNW
Cosmos 1992 Rocket 4.1 07:39:53 10° N 07:44:55 51° ENE 07:50:00 10° SSE
Meteor 1-31 Rocket 4.5 07:42:31 10° SE 07:43:36 15° ESE 07:43:36 15° ESE
Cosmos 2333 Rocket 3.7 07:40:44 10° SSW 07:45:18 23° SE 07:48:04 17° ESE
PSLV R/B 3.4 07:44:11 10° SSE 07:48:25 85° ENE 07:52:33 10° NNW
Cosmos 2082 Rocket 2.8 07:45:53 10° NNE 07:50:50 32° ENE 07:55:47 10° SE
NOAA 6 4.0 07:46:10 10° SSE 07:51:27 84° ENE 07:56:39 10° NNW
YAOGAN 1 3.6 07:47:20 10° S 07:51:32 48° WSW 07:55:41 10° NW
Cosmos 1697 Rocket 3.6 07:51:30 10° SW 07:56:56 48° WNW 08:02:20 10° N
SJ-6B 2.3 07:54:04 10° SSE 07:57:36 72° ENE 08:00:40 13° N
Helios 1A 4.0 07:59:05 26° ESE 07:59:17 27° ESE 08:02:42 10° S
Cosmos 1980 Rocket 2.1 07:54:15 10° SSW 07:59:59 89° E 08:03:32 24° NNE
Tiangong 0.6 08:00:31 10° NNW 08:00:51 10° NNW 08:01:12 10° NNW
Cosmos 1842 Rocket 3.5 07:58:37 12° N 08:02:39 64° E 08:07:05 10° SSE
S3M 4.1 07:57:46 11° NNE 08:03:36 52° E 08:09:35 10° SSE
SL-16 R/B 3.3 08:00:26 10° SSW 08:05:30 31° SE 08:07:26 25° E
CZ-4 R/B 2.8 08:04:57 10° SSE 08:06:39 21° SE 08:06:39 21° SE
Cosmos 1238 Rocket 3.4 08:06:27 10° NNW 08:09:48 51° WSW 08:13:37 10° S
Cosmos 1151 Rocket 4.3 08:11:57 26° ESE 08:11:57 26° ESE 08:14:34 10° SSE
Cosmos 1066 Rocket 4.1 08:06:04 10° N 08:11:27 66° E 08:17:03 10° SSE
Cosmos 1271 Rocket 3.4 08:08:29 10° NNW 08:11:54 49° WSW 08:15:21 10° S
SPOT 5 3.1 08:07:35 10° SSE 08:12:18 49° E 08:14:03 34° NNE
Lacrosse 5 rocket 2.8 08:10:01 10° WSW 08:13:20 29° SSW 08:15:28 17° SE
Cosmos 1408 Rocket 3.8 08:10:32 10° S 08:14:44 44° ESE 08:15:00 44° E
Cosmos 2322 Rocket 3.6 08:11:18 10° SSW 08:15:58 24° SE 08:17:42 21° ESE
USA 215 3.5 08:12:46 26° E 08:16:31 61° SSE 08:23:00 10° WSW
Gblst 52 Del rocket 4.0 08:11:23 10° WNW 08:17:04 83° NNE 08:20:00 29° ESE
Cosmos 1503 Rocket 4.5 08:17:07 10° SSW 08:22:05 42° ESE 08:22:58 39° E
Meteor 2-4 Rocket 3.9 08:19:26 10° NNW 08:24:53 72° WSW 08:30:34 10° S
Cosmos 2369 3.6 08:20:25 10° SSW 08:26:14 80° ESE 08:28:13 43° NE
Cosmos 2360 Rocket 3.5 08:23:14 10° SSW 08:28:00 26° SE 08:29:17 24° ESE
Cosmos 2237 4.2 08:23:40 10° SSW 08:29:28 71° ESE 08:31:08 47° NE
ATLAS 3B R/B 2.5 08:25:17 10° SW 08:31:34 71° SE 08:33:44 43° ENE
ERS-1 Rocket 3.9 08:27:44 10° SSE 08:31:06 31° ESE 08:31:06 31° ESE
CZ-4B R/B 4.1 08:27:59 10° SSE 08:31:37 30° ESE 08:31:37 30° ESE
In-Cosmos 22 4.2 08:32:48 45° NNE 08:34:15 59° E 08:39:55 10° SSE
Cosmos 1743 Rocket 4.2 08:30:09 10° S 08:33:46 40° SE 08:33:46 40° SE
Cosmos 1500 Rocket 3.5 08:29:54 10° S 08:34:25 64° ESE 08:34:29 64° E
CSL-04 Rocket 3.5 08:30:25 10° SSE 08:35:49 68° ENE 08:37:37 41° N
CZ-4B DEB 4.4 08:30:31 10° SSE 08:35:56 49° E 08:36:02 49° ENE
IRIDIUM 104 4.4 08:35:04 10° S 08:40:23 76° W 08:42:46 34° N
CZ-4B R/B 3.8 08:37:23 10° SSE 08:41:16 80° S 08:41:16 80° S
Okean O Rocket 4.1 08:38:56 10° SE 08:39:04 11° SE 08:39:04 11° SE
Cosmos 1486 Rocket 3.9 08:37:55 10° SSW 08:43:20 85° ESE 08:44:19 61° NNE
ATLAS 5 CENTAUR R/B 1.9 08:38:07 10° SW 08:44:09 83° NW 08:44:59 64° NNE
Cosmos 1805 Rocket 3.4 08:39:42 10° S 08:44:07 82° ESE 08:44:07 82° ESE
Cosmos 1758 4.0 08:45:14 10° S 08:47:54 45° S 08:47:54 45° S
Sich 1 3.8 08:51:05 10° SSW 08:55:10 46° W 08:55:51 42° WNW
Meteor 1-18 Rocket 4.4 08:52:04 15° NNW 08:56:44 70° WSW 09:02:31 10° S
Cosmos 1818 4.4 08:51:40 10° SW 08:56:44 42° WNW 08:58:04 35° NNW
COSMOS 2406 4.2 09:00:51 33° SE 09:00:51 33° SE 09:04:08 10° SE
Cosmos 990 Rocket 4.2 08:58:16 10° SSW 09:03:16 59° SE 09:03:16 59° SE
Terra 2.8 09:00:24 10° SSE 09:03:24 37° SE 09:03:24 37° SE
Cosmos 1709 Rocket 4.5 09:00:07 10° SSW 09:06:15 57° W 09:09:16 30° NNW
Resurs 01 Rocket 4.4 09:11:52 10° SSW 09:14:52 18° WSW 09:17:52 10° WNW
Cosmos 2278 3.7 09:10:26 10° SSW 09:16:03 69° SE 09:16:03 69° SE
Cosmos 2074 Rocket 4.0 09:10:52 10° S 09:17:12 65° ESE 09:17:13 65° ESE
Cosmos 1295 Rocket 4.4 09:11:12 10° S 09:17:32 73° E 09:17:40 72° E
ATLAS 2AS CENTAUR R/B 3.1 09:11:56 10° NW 09:19:05 67° SW 09:26:28 10° SE
Cosmos 839 Rocket 3.9 09:13:06 10° NNW 09:20:05 83° NE 09:26:18 10° SE
Cosmos 2219 Rocket 3.1 09:18:30 10° SSW 09:23:32 37° SE 09:23:32 37° SE
MOS 1 4.2 09:18:52 10° SSE 09:24:39 88° S 09:24:39 88° S
USA 229 DEB 3.9 09:19:42 10° SW 09:25:57 49° WNW 09:26:30 48° NW
USA 229 3.8 09:19:46 10° SW 09:26:03 50° WNW 09:26:33 48° NW
Cosmos 2333 Rocket 2.2 09:24:33 10° SSW 09:30:04 79° SSW 09:30:04 79° SSW
COSMOS 2428 4.4 09:28:34 10° S 09:32:52 21° SE 09:33:16 21° SE
Cosmos 2154 Rocket 4.0 09:27:16 10° S 09:33:16 72° SE 09:33:16 72° SE
Cosmos 2082 Rocket 2.9 09:29:08 10° NW 09:34:40 51° SW 09:40:14 10° SSE
Cosmos 1354 Rocket 4.4 09:31:38 10° SSW 09:36:05 61° SW 09:36:05 61° SW
CZ-4 R/B 3.5 09:39:11 10° S 09:41:36 23° SW 09:41:36 23° SW
Cosmos 1980 Rocket 4.4 09:39:43 10° WSW 09:43:08 17° W 09:45:17 14° WNW
SL-16 R/B 2.7 09:44:19 10° SW 09:49:15 55° W 09:49:15 55° W
Lacrosse 5 rocket 3.9 09:47:38 10° SW 09:48:48 17° SW 09:48:48 17° SW
Cosmos 2184 Rocket 4.2 09:53:08 10° SSW 09:58:57 67° WSW 09:58:57 67° WSW
USA 215 3.4 10:00:07 63° WNW 10:00:07 63° WNW 10:06:06 10° WSW
Cosmos 2322 Rocket 2.7 09:54:55 10° SSW 09:59:29 57° SW 09:59:29 57° SW
ADEOS 4.4 09:57:52 10° S 10:02:25 48° SW 10:02:25 48° SW
Cosmos 2237 Rocket 4.2 10:02:14 10° S 10:06:03 18° SE 10:06:27 18° SE
Aureole 1 Rocket 4.3 09:59:00 10° SSW 10:06:10 81° W 10:06:10 81° W
ERS-1 Rocket 4.3 10:06:29 10° S 10:10:56 36° WSW 10:10:56 36° WSW
Cosmos 2360 Rocket 3.0 10:06:52 10° SSW 10:11:01 49° SW 10:11:01 49° SW
CZ-4B R/B 4.1 10:08:25 10° S 10:13:28 43° WSW 10:13:28 43° WSW
Okean O Rocket 3.8 10:14:32 10° S 10:16:18 22° S 10:16:18 22° S
ATLAS 3B R/B 3.9 10:16:24 10° WSW 10:20:57 29° WNW 10:20:57 29° WNW
ATLAS 5 CENTAUR R/B 4.4 10:22:13 10° WSW 10:24:12 15° W 10:24:12 15° W
CZ-4C R/B 3.4 10:38:52 52° SE 10:38:52 52° SE 10:43:50 10° SE
Terra 4.0 10:38:42 10° SSW 10:42:01 21° SW 10:42:01 21° SW
ACS3 Solar Sail 3.8 10:46:51 18° SE 10:46:51 18° SE 10:50:34 10° SSE
NOSS 3-4 (A) 4.2 10:53:00 10° SW 10:59:23 56° S 10:59:23 56° S
NOSS 3-4 (C) 4.2 10:53:24 10° SW 10:59:45 55° S 10:59:45 55° S
Cosmos 2219 Rocket 3.9 11:02:26 10° SW 11:05:13 27° SW 11:05:13 27° SW
ATLAS 2AS CENTAUR R/B 4.4 11:04:58 10° WSW 11:11:22 31° SSW 11:17:51 10° SE
COSMOS 2428 4.3 11:12:15 10° SSW 11:15:13 32° SSW 11:15:13 32° SSW
Cosmos 2237 Rocket 3.9 11:45:34 10° SSW 11:48:14 28° SSW 11:48:14 28° SSW
